[[{"header":{"parameterUnit":"m.s-1","parameterCategory":1,"la1":30.2991,"la2":30.254,"lo1":-89.0895,"lo2":-89.0444,"dy":0.0017,"dx":0.0017,"nx":28,"ny":28,"refTime":"2023-08-14T21:00:00:Z","depth":0,"parameterNumber":2,"parameterNumberName":"U-component_of_WINDS"},"data":[0,0,0,0,0,0,0,0,0,0,0,0,0,0,0,0,0,0,0,0,0,0,0,0,0,0,0,0,0,0,0,0,0,0,0,0,0,0,0,0,0,0,0,0,0,0,0,0,0,0,0,0,0,0,0,0,0,0,2.6804,2.6804,0,2.6839,2.6839,2.6839,2.6817,2.6816,2.6815,2.6814,2.6853,2.6855,2.6857,0,0,0,0,0,0,0,0,0,0,0,0,0,2.6722,2.6724,2.6804,2.6804,2.6805,2.6839,2.6839,2.684,2.6817,2.6816,2.6814,2.6813,2.6852,2.6855,2.6857,0,0,0,0,0,0,0,0,0,0,0,0,0,2.6758,2.6724,2.6804,2.6797,2.6797,2.6838,2.6839,2.684,2.6817,2.6816,2.6814,2.6813,2.6851,2.6854,2.6857,2.6908,0,0,2.6867,2.6868,0,0,0,0,0,0,0,0,2.6756,2.6761,2.6798,2.6798,2.6798,2.6822,2.6825,2.6863,2.6818,2.681,2.6814,2.6812,2.6844,2.6848,2.6858,2.691,2.6911,2.6867,2.6869,2.687,2.6871,0,0,0,0,0,0,0,2.6753,2.6759,2.6818,2.6798,2.6798,2.6794,2.6798,2.6832,2.6835,2.681,2.6809,2.6813,2.6844,2.6855,2.6858,2.6912,2.6867,2.687,2.6871,2.6873,2.701,2.7012,0,0,0,0,0,0,2.6751,2.6757,2.6816,2.6819,2.6772,2.6797,2.6801,2.6816,2.6835,2.6836,2.6814,2.6812,2.685,2.6855,2.686,2.6921,2.687,2.6873,2.6875,2.7008,2.701,2.7012,0,0,0,0,0,0,2.6749,2.6756,2.6815,2.6787,2.6795,2.68,2.6817,2.6817,2.6828,2.6838,2.6839,2.6825,2.6849,2.6855,2.6896,2.6922,2.6874,2.6877,2.7006,2.7009,2.7011,2.7044,0,0,0,0,0,0,2.6747,2.6756,2.6773,2.6788,2.6796,2.685,2.6819,2.6819,2.6833,2.683,2.6848,2.6849,2.6849,2.6892,2.6899,2.6926,2.6879,2.7004,2.7007,2.701,2.7041,2.7047,2.7053,0,0,0,0,0,2.6744,2.6781,2.6774,2.6782,2.6818,2.6851,2.6856,2.6853,2.6835,2.6854,2.6861,2.6849,2.6918,2.6896,2.6905,2.6932,2.7002,2.7006,2.701,2.7038,2.7046,2.7053,0,0,0,0,0,0,2.677,2.6783,2.6775,2.6819,2.6834,2.6847,2.687,2.6862,2.6883,2.688,2.6877,2.6881,2.6924,2.6932,2.6907,2.6983,2.6958,2.6964,2.6976,2.6984,2.699,2.6987,2.6882,0,0,0,0,0,2.6781,2.6805,2.6816,2.6853,2.6861,2.6865,2.6879,2.6876,2.6892,2.6898,2.6908,2.6925,2.6951,2.6968,2.6992,2.7042,2.7047,2.7066,2.7072,2.7077,2.7082,2.7111,2.712,2.7026,2.7026,2.7026,0,0,2.6803,2.6814,2.6829,2.6859,2.687,2.6897,2.687,2.6899,2.6919,2.6903,2.6942,2.695,2.6969,2.7015,2.7036,2.7024,2.711,2.7082,2.7086,2.7089,2.7116,2.7125,2.7133,2.7028,2.7028,2.7028,0,0,2.6858,2.6868,2.69,2.6913,2.693,2.6933,2.6941,2.6956,2.6961,2.7,2.6989,2.7014,2.7058,2.7073,2.7086,2.715,2.714,2.7158,2.7191,2.722,2.7227,2.7234,2.7257,2.7265,2.7163,2.7163,2.7163,0,2.6884,2.6922,2.6918,2.6949,2.6963,2.6949,2.6984,2.6996,2.7022,2.7032,2.7018,2.7075,2.7087,2.7137,2.7152,2.7163,2.7174,2.7155,2.7226,2.7233,2.7239,2.7261,2.727,2.7165,2.7165,2.7165,2.7165,0,2.6954,2.6981,2.7005,2.703,2.7047,2.7079,2.7082,2.71,2.7097,2.7102,2.7143,2.7158,2.7185,2.7197,2.7194,2.7248,2.724,2.7226,2.72,2.725,2.7271,2.7279,2.7168,2.7168,2.7167,2.7167,0,0,2.7023,2.7047,2.7056,2.7068,2.7088,2.7109,2.7143,2.7169,2.7185,2.7204,2.7233,2.7272,2.726,2.7275,2.7274,2.7299,2.735,2.7282,2.7283,2.7294,2.7412,2.7422,2.7431,2.7344,2.7346,2.7347,2.741,0,2.7079,2.7135,2.7134,2.7186,2.7213,2.7202,2.7231,2.7248,2.7254,2.7279,2.7286,2.7314,2.7296,2.7305,2.7329,2.7338,2.7373,2.7334,2.7372,2.7373,2.7366,2.7442,2.7452,2.7511,2.7418,2.742,2.7421,0,2.7151,2.7172,2.7227,2.7245,2.7256,2.7282,2.7308,2.7331,2.7351,2.7354,2.7372,2.7368,2.7403,2.7377,2.7427,2.7401,2.7417,2.7424,2.7426,2.7429,2.7399,2.7447,2.753,2.7539,2.7434,2.7433,2.7432,0,2.7196,2.7239,2.7278,2.7288,2.731,2.7329,2.734,2.7358,2.7375,2.7398,2.7409,2.7437,2.7452,2.7474,2.7478,2.7458,2.7529,2.7503,2.7533,2.7533,2.7548,2.7547,2.7634,2.7559,2.7559,2.7558,2.7558,0,2.7258,2.7293,2.7299,2.7323,2.7362,2.7362,2.7401,2.741,2.7427,2.7454,2.7447,2.7473,2.7476,2.7504,2.7508,2.7549,2.7556,2.7561,2.7561,2.7561,2.756,2.7571,2.7566,2.7561,2.756,2.756,2.7559,0,2.7315,2.732,2.7362,2.7381,2.7386,2.7414,2.7431,2.7455,2.7461,2.7496,2.7504,2.7515,2.7547,2.7553,2.7591,2.7594,2.7644,2.764,2.7637,2.7636,2.7666,2.7663,2.7763,2.7776,2.7693,2.7694,2.7694,0,2.7354,2.738,2.7402,2.7419,2.743,2.7458,2.7475,2.7478,2.7497,2.7523,2.7544,2.7576,2.76,2.7653,2.7665,2.7694,2.7692,2.7725,2.7696,2.7696,2.7692,2.769,2.7694,2.773,2.7731,2.7731,2.7732,0,2.7422,2.7424,2.7449,2.7476,2.7497,2.7518,2.7539,2.7554,2.7559,2.7581,2.7614,2.7633,2.7673,2.7704,2.7735,2.7747,2.7741,2.7741,2.775,2.7749,2.7746,2.7748,2.7651,2.7738,2.7738,2.7737,2.7737,2.7737,2.7471,2.7494,2.7514,2.7543,2.7558,2.7578,2.7602,2.7612,2.7639,2.7671,2.7672,2.7707,2.7729,2.7769,2.7784,2.7813,2.7803,2.7816,2.7819,2.7821,2.7824,2.7742,2.7819,2.7819,2.7819,2.7818,2.7818,0,2.7539,2.7551,2.7578,2.7607,2.763,2.7623,2.7646,2.7666,2.7697,2.7718,2.7743,2.7782,2.7813,2.7829,2.7861,2.7881,2.788,2.789,2.7888,2.7891,2.7831,2.7821,2.7891,2.7891,2.7891,2.7891,2.7891,2.7891,2.7577,2.7616,2.7621,2.767,2.7683,2.7717,2.7731,2.775,2.7767,2.781,2.7836,2.7846,2.7866,2.7899,2.7928,2.7932,2.7944,2.7956,2.7959,2.7902,2.7895,2.7888,2.7878,2.7959,2.7959,2.8016,2.8016,2.8016]},{"header":{"parameterUnit":"m.s-1","parameterCategory":1,"la1":30.2991,"la2":30.254,"lo1":-89.0895,"lo2":-89.0444,"dy":0.0017,"dx":0.0017,"nx":28,"ny":28,"refTime":"2023-08-14T21:00:00:Z","depth":0,"parameterNumber":3,"parameterNumberName":"V-component_of_WINDS"},"data":[0,0,0,0,0,0,0,0,0,0,0,0,0,0,0,0,0,0,0,0,0,0,0,0,0,0,0,0,0,0,0,0,0,0,0,0,0,0,0,0,0,0,0,0,0,0,0,0,0,0,0,0,0,0,0,0,0,0,3.5246,3.5249,0,3.555,3.5553,3.5556,3.5571,3.5568,3.5564,3.5561,3.587,3.5881,3.5892,0,0,0,0,0,0,0,0,0,0,0,0,0,3.4671,3.4681,3.5245,3.5249,3.5253,3.5549,3.5553,3.5557,3.5572,3.5568,3.5563,3.5559,3.5866,3.588,3.5893,0,0,0,0,0,0,0,0,0,0,0,0,0,3.4942,3.4684,3.5245,3.5296,3.5304,3.5548,3.5553,3.5558,3.5573,3.5568,3.5562,3.5557,3.5861,3.5878,3.5895,3.6109,0,0,3.5948,3.5956,0,0,0,0,0,0,0,0,3.4926,3.4963,3.5285,3.5293,3.5302,3.5517,3.5464,3.5743,3.5574,3.5471,3.5561,3.5555,3.5757,3.5782,3.5851,3.6123,3.6136,3.595,3.596,3.5968,3.5972,0,0,0,0,0,0,0,3.4908,3.495,3.5366,3.5289,3.53,3.5301,3.5334,3.5517,3.564,3.5479,3.5481,3.5517,3.576,3.5834,3.5858,3.6141,3.5949,3.5965,3.5975,3.5982,3.6596,3.6602,0,0,0,0,0,0,3.4879,3.4934,3.5356,3.5375,3.5097,3.5316,3.5353,3.5453,3.5638,3.5661,3.5521,3.5516,3.5807,3.5838,3.5869,3.6127,3.5967,3.5984,3.5994,3.659,3.6598,3.6604,0,0,0,0,0,0,3.4867,3.4917,3.5344,3.5155,3.521,3.5332,3.5445,3.5462,3.5536,3.5669,3.5691,3.5575,3.5804,3.5845,3.6048,3.6138,3.5991,3.6007,3.6583,3.6593,3.6601,3.6647,0,0,0,0,0,0,3.4851,3.4913,3.4997,3.5157,3.522,3.552,3.545,3.5472,3.5566,3.5563,3.5725,3.5747,3.5803,3.6022,3.6065,3.6159,3.6021,3.6576,3.6587,3.6598,3.6638,3.6657,3.6672,0,0,0,0,0,3.483,3.4999,3.5001,3.5052,3.5328,3.5525,3.5561,3.5623,3.5574,3.5658,3.5742,3.5742,3.6121,3.6042,3.6091,3.6192,3.657,3.6584,3.6597,3.663,3.6653,3.6672,0,0,0,0,0,0,3.4847,3.5021,3.5026,3.5251,3.5373,3.5527,3.5636,3.5645,3.5783,3.5774,3.5844,3.5881,3.6081,3.6157,3.6066,3.6405,3.634,3.6363,3.6348,3.6371,3.6388,3.6365,3.6035,0,0,0,0,0,3.4876,3.5024,3.5167,3.5352,3.5413,3.5513,3.5602,3.5638,3.5767,3.5819,3.5919,3.6042,3.6188,3.6284,3.6427,3.6648,3.6681,3.6741,3.6758,3.6772,3.6791,3.6909,3.6936,3.6648,3.6648,3.6648,0,0,3.494,3.5053,3.5142,3.5358,3.5457,3.5605,3.5557,3.5717,3.5827,3.5843,3.604,3.6117,3.6259,3.6471,3.6569,3.654,3.6878,3.6789,3.6798,3.6811,3.6926,3.6953,3.6977,3.6657,3.6655,3.6654,0,0,3.5131,3.5233,3.5396,3.5495,3.5644,3.5709,3.5748,3.59,3.5951,3.615,3.6164,3.6293,3.6546,3.6645,3.6729,3.695,3.6953,3.6994,3.7084,3.7198,3.7221,3.7241,3.7317,3.7344,3.7013,3.7014,3.7014,0,3.5191,3.5417,3.5479,3.5638,3.573,3.575,3.5914,3.6006,3.6195,3.6257,3.6221,3.6535,3.6632,3.6865,3.6918,3.6986,3.703,3.6977,3.7213,3.7234,3.7254,3.7326,3.7355,3.7017,3.7017,3.7017,3.7016,0,3.5481,3.5636,3.575,3.593,3.6035,3.6196,3.6279,3.6378,3.6403,3.6471,3.6669,3.6786,3.695,3.7008,3.7036,3.7244,3.7221,3.7198,3.7134,3.7284,3.7353,3.7382,3.7023,3.7021,3.702,3.7019,0,0,3.5695,3.5903,3.5944,3.6023,3.6187,3.6307,3.6466,3.6626,3.6708,3.6835,3.6968,3.7178,3.7156,3.7251,3.7289,3.7389,3.7552,3.7354,3.7358,3.7384,3.7783,3.7798,3.783,3.7554,3.756,3.7564,3.777,0,3.5902,3.6187,3.6244,3.649,3.6632,3.665,3.6787,3.69,3.6966,3.7094,3.7166,3.7312,3.7275,3.7331,3.7431,3.7511,3.7632,3.7497,3.7675,3.7681,3.7639,3.7867,3.7885,3.8073,3.7798,3.7803,3.7806,0,3.6183,3.6315,3.6575,3.6715,3.6776,3.69,3.7048,3.7171,3.7298,3.7338,3.7441,3.7466,3.7628,3.7555,3.7777,3.7683,3.7758,3.7808,3.7817,3.7835,3.7752,3.7889,3.8136,3.8163,3.785,3.7847,3.7843,0,3.6309,3.6552,3.6738,3.6806,3.6975,3.706,3.7134,3.7255,3.7346,3.7475,3.7534,3.768,3.7759,3.787,3.7932,3.7874,3.8148,3.8081,3.8183,3.8181,3.824,3.8236,3.85,3.8291,3.829,3.829,3.8289,0,3.6534,3.6691,3.6796,3.691,3.7085,3.7148,3.7319,3.7391,3.7498,3.7624,3.7648,3.7765,3.7841,3.7968,3.8018,3.8191,3.8227,3.8262,3.8273,3.826,3.8255,3.831,3.8298,3.8297,3.8296,3.8294,3.8293,0,3.6705,3.6782,3.6985,3.7126,3.7165,3.7288,3.7408,3.7517,3.7581,3.7739,3.778,3.788,3.803,3.8103,3.8289,3.8322,3.8517,3.8521,3.8475,3.8479,3.8575,3.8564,3.8884,3.8928,3.8691,3.8693,3.8695,0,3.6843,3.6964,3.7117,3.7203,3.7279,3.7418,3.751,3.7574,3.7669,3.7819,3.7909,3.806,3.8184,3.8422,3.8509,3.865,3.8656,3.8758,3.8678,3.8658,3.8655,3.8646,3.8657,3.8773,3.8775,3.8777,3.8778,0,3.7078,3.7109,3.7242,3.7386,3.7495,3.7612,3.7727,3.7796,3.7877,3.7981,3.8135,3.8231,3.8419,3.8567,3.8714,3.8786,3.8795,3.8803,3.8833,3.882,3.8788,3.8804,3.8512,3.8795,3.8794,3.8792,3.8792,3.8791,3.7236,3.7343,3.7466,3.7611,3.7704,3.7809,3.7918,3.7994,3.8123,3.8282,3.8311,3.8473,3.8591,3.8788,3.8865,3.899,3.8967,3.9012,3.9023,3.9033,3.9037,3.8768,3.9017,3.9017,3.9016,3.9016,3.9016,0,3.747,3.755,3.7682,3.7841,3.7954,3.7952,3.8078,3.8172,3.8314,3.8424,3.8545,3.8718,3.886,3.8957,3.91,3.9181,3.9188,3.9216,3.9211,3.9226,3.9051,3.9009,3.9208,3.9208,3.9208,3.9208,3.9208,3.9208,3.7606,3.7785,3.7829,3.8052,3.813,3.8289,3.836,3.8456,3.8543,3.8736,3.8854,3.8917,3.902,3.917,3.9299,3.9323,3.9373,3.9402,3.9425,3.9259,3.9239,3.922,3.9181,3.9413,3.9413,3.959,3.9592,3.9593]}]]